Location: Newark
(52.4480°N, 1.4938°W)
Time: 05:07:01
(UTC+00:00)

HuskySat-1 - Visible Passes

Search period start: 26 November 2020 00:00
Search period end: 06 December 2020 00:00
Orbit: 455 x 469 km, 51.6° (Epoch: 25 November)

Date Brightness Start Highest point End Pass type
(mag) Time Alt. Az. Time Alt. Az. Time Alt. Az.
26 Nov ? 17:50:58 10° SSE 17:51:48 11° SE 17:51:48 11° SE visible
27 Nov ? 18:52:02 10° SW 18:53:25 20° SSW 18:53:25 20° SSW visible
28 Nov ? 18:18:21 10° SW 18:21:06 30° SSE 18:21:06 30° SSE visible
29 Nov ? 17:44:41 10° SSW 17:47:50 27° SSE 17:48:43 24° ESE visible
29 Nov ? 19:21:35 10° WSW 19:22:33 17° WSW 19:22:33 17° WSW visible
30 Nov ? 17:11:04 10° SSW 17:14:02 24° SSE 17:16:17 14° E visible
30 Nov ? 18:47:45 10° WSW 18:50:07 36° SW 18:50:07 36° SW visible
01 Dec ? 16:37:28 10° SSW 16:40:15 21° SE 16:43:03 10° E visible
01 Dec ? 18:13:56 10° WSW 18:17:32 59° SSE 18:17:37 59° SSE visible
02 Dec ? 17:40:06 10° WSW 17:43:40 54° SSE 17:45:06 31° E visible
02 Dec ? 19:17:40 10° W 19:18:56 20° W 19:18:56 20° W visible
03 Dec ? 17:06:16 10° SW 17:09:48 49° SSE 17:12:33 16° E visible
03 Dec ? 18:43:45 10° W 18:46:23 45° W 18:46:23 45° W visible
04 Dec ? 16:32:26 10° SW 16:35:55 44° SSE 16:39:26 10° E visible
04 Dec ? 18:09:51 10° W 18:13:31 80° S 18:13:49 71° ESE visible
04 Dec ? 19:47:34 10° W 19:47:39 11° W 19:47:39 11° W visible
05 Dec ? 17:35:56 10° W 17:39:36 78° S 17:41:16 30° E visible
05 Dec ? 19:13:39 10° W 19:15:05 22° W 19:15:05 22° W visible
